Hourly Weather Rumphi

Today, 19 April, Monday

Time Temperature Precipitation Wind Pressure Humidity
00:00 +18°C° 0 mm 1 mps 667 mmHg 92%
01:00 +18°C° 0 mm 1 mps 667 mmHg 92%
02:00 +17°C° 0 mm 2 mps 666 mmHg 92%
03:00 +17°C° 0 mm 2 mps 666 mmHg 92%
04:00 +17°C° 0 mm 2 mps 666 mmHg 92%
05:00 +18°C° 0 mm 2 mps 666 mmHg 92%
06:00 +18°C° 0 mm 2 mps 667 mmHg 90%
07:00 +18°C° 0 mm 2 mps 667 mmHg 89%
08:00 +19°C° 0 mm 2 mps 668 mmHg 88%
09:00 +20°C° 0.1 mm 2 mps 668 mmHg 83%
10:00 +21°C° 0.1 mm 2 mps 668 mmHg 78%
11:00 +23°C° 0.1 mm 2 mps 668 mmHg 74%
12:00 +23°C° 0.1 mm 2 mps 667 mmHg 72%
13:00 +24°C° 0.1 mm 2 mps 667 mmHg 70%
14:00 +24°C° 0.1 mm 2 mps 667 mmHg 68%
15:00 +23°C° 0 mm 2 mps 667 mmHg 73%
16:00 +21°C° 0 mm 2 mps 666 mmHg 78%
17:00 +21°C° 0 mm 2 mps 666 mmHg 82%
18:00 +19°C° 0 mm 2 mps 667 mmHg 86%
19:00 +18°C° 0 mm 2 mps 667 mmHg 90%
20:00 +18°C° 0 mm 1 mps 667 mmHg 94%
21:00 +16°C° 0 mm 1 mps 667 mmHg 95%
22:00 +16°C° 0 mm 1 mps 667 mmHg 95%
23:00 +16°C° 0 mm 1 mps 667 mmHg 96%

Tomorrow, 20 April, Tuesday

Time Temperature Precipitation Wind Pressure Humidity
00:00 +16°C° 0 mm 1 mps 667 mmHg 96%
01:00 +16°C° 0 mm 1 mps 666 mmHg 96%
02:00 +16°C° 0 mm 1 mps 666 mmHg 96%
03:00 +16°C° 0 mm 1 mps 666 mmHg 96%
04:00 +16°C° 0 mm 1 mps 666 mmHg 95%
05:00 +16°C° 0 mm 1 mps 666 mmHg 95%
06:00 +18°C° 0 mm 1 mps 667 mmHg 91%
07:00 +20°C° 0 mm 1 mps 667 mmHg 86%
08:00 +21°C° 0 mm 1 mps 668 mmHg 82%
09:00 +21°C° 0.1 mm 2 mps 668 mmHg 79%
10:00 +23°C° 0.1 mm 2 mps 668 mmHg 76%
11:00 +23°C° 0.1 mm 2 mps 668 mmHg 74%
12:00 +24°C° 0.1 mm 2 mps 667 mmHg 73%
13:00 +24°C° 0.1 mm 2 mps 667 mmHg 72%
14:00 +25°C° 0.1 mm 3 mps 666 mmHg 71%
15:00 +24°C° 0.1 mm 2 mps 666 mmHg 75%
16:00 +23°C° 0.1 mm 2 mps 666 mmHg 80%
17:00 +21°C° 0.1 mm 2 mps 666 mmHg 84%
18:00 +20°C° 0 mm 2 mps 666 mmHg 88%
19:00 +19°C° 0 mm 2 mps 667 mmHg 91%
20:00 +18°C° 0 mm 1 mps 667 mmHg 94%
21:00 +18°C° 0 mm 1 mps 667 mmHg 95%
22:00 +18°C° 0 mm 1 mps 667 mmHg 95%
23:00 +18°C° 0 mm 1 mps 667 mmHg 95%

Day after tomorrow, 21 April, Wednesday

Time Temperature Precipitation Wind Pressure Humidity
00:00 +18°C° 0 mm 1 mps 667 mmHg 96%
01:00 +18°C° 0 mm 1 mps 666 mmHg 96%
02:00 +18°C° 0 mm 1 mps 666 mmHg 96%
03:00 +18°C° 0 mm 1 mps 666 mmHg 96%
04:00 +18°C° 0 mm 1 mps 666 mmHg 96%
05:00 +18°C° 0 mm 1 mps 666 mmHg 96%
06:00 +19°C° 0 mm 1 mps 667 mmHg 92%
07:00 +19°C° 0 mm 2 mps 667 mmHg 88%
08:00 +20°C° 0 mm 2 mps 668 mmHg 84%
09:00 +21°C° 0.1 mm 2 mps 668 mmHg 79%
10:00 +24°C° 0.1 mm 2 mps 668 mmHg 74%
11:00 +25°C° 0.1 mm 2 mps 668 mmHg 69%
12:00 +25°C° 0.2 mm 2 mps 667 mmHg 70%
13:00 +25°C° 0.2 mm 2 mps 667 mmHg 72%
14:00 +25°C° 0.2 mm 3 mps 666 mmHg 73%
15:00 +24°C° 0.5 mm 2 mps 666 mmHg 78%
16:00 +23°C° 0.5 mm 2 mps 666 mmHg 84%
17:00 +21°C° 0.5 mm 2 mps 666 mmHg 89%
18:00 +20°C° 0.1 mm 2 mps 666 mmHg 92%
19:00 +20°C° 0.1 mm 1 mps 667 mmHg 94%
20:00 +19°C° 0.1 mm 1 mps 667 mmHg 96%
21:00 +19°C° 0 mm 1 mps 667 mmHg 96%
22:00 +18°C° 0 mm 1 mps 667 mmHg 96%
23:00 +18°C° 0 mm 1 mps 667 mmHg 96%

22 April, Thursday

Time Temperature Precipitation Wind Pressure Humidity
00:00 +18°C° 0 mm 1 mps 667 mmHg 96%
01:00 +18°C° 0 mm 1 mps 666 mmHg 96%
02:00 +18°C° 0 mm 1 mps 666 mmHg 96%
03:00 +18°C° 0 mm 1 mps 666 mmHg 96%
04:00 +18°C° 0 mm 1 mps 666 mmHg 96%
05:00 +18°C° 0 mm 1 mps 666 mmHg 96%
06:00 +19°C° 0 mm 1 mps 667 mmHg 93%
07:00 +20°C° 0 mm 1 mps 668 mmHg 90%
08:00 +21°C° 0 mm 1 mps 668 mmHg 88%
09:00 +23°C° 0.2 mm 2 mps 668 mmHg 82%
10:00 +24°C° 0.2 mm 2 mps 668 mmHg 76%
11:00 +25°C° 0.2 mm 2 mps 668 mmHg 71%
12:00 +25°C° 0.5 mm 2 mps 667 mmHg 73%
13:00 +25°C° 0.5 mm 2 mps 667 mmHg 74%
14:00 +25°C° 0.5 mm 2 mps 666 mmHg 76%
15:00 +24°C° 0.5 mm 2 mps 666 mmHg 80%
16:00 +23°C° 0.5 mm 2 mps 666 mmHg 85%
17:00 +21°C° 0.5 mm 2 mps 666 mmHg 89%
18:00 +21°C° 0 mm 1 mps 666 mmHg 92%
19:00 +20°C° 0 mm 1 mps 666 mmHg 94%
20:00 +19°C° 0 mm 1 mps 667 mmHg 97%
21:00 +19°C° 0 mm 1 mps 667 mmHg 97%
22:00 +19°C° 0 mm 1 mps 667 mmHg 97%
23:00 +18°C° 0 mm 1 mps 667 mmHg 97%

23 April, Friday

Time Temperature Precipitation Wind Pressure Humidity
00:00 +18°C° 0 mm 1 mps 666 mmHg 97%
01:00 +18°C° 0 mm 1 mps 666 mmHg 97%
02:00 +18°C° 0 mm 1 mps 666 mmHg 97%
03:00 +18°C° 0 mm 1 mps 666 mmHg 97%
04:00 +18°C° 0 mm 1 mps 666 mmHg 97%
05:00 +18°C° 0 mm 1 mps 666 mmHg 97%
06:00 +19°C° 0 mm 1 mps 666 mmHg 93%
07:00 +20°C° 0 mm 1 mps 667 mmHg 90%
08:00 +22°C° 0 mm 1 mps 667 mmHg 87%
09:00 +23°C° 0.3 mm 1 mps 667 mmHg 82%
10:00 +24°C° 0.3 mm 2 mps 667 mmHg 77%
11:00 +25°C° 0.3 mm 2 mps 667 mmHg 72%
12:00 +26°C° 0.5 mm 2 mps 666 mmHg 70%
13:00 +26°C° 0.5 mm 2 mps 666 mmHg 69%
14:00 +26°C° 0.5 mm 2 mps 665 mmHg 67%
15:00 +25°C° 0.4 mm 2 mps 665 mmHg 74%
16:00 +24°C° 0.4 mm 2 mps 665 mmHg 81%
17:00 +23°C° 0.4 mm 2 mps 665 mmHg 88%
18:00 +22°C° 0 mm 1 mps 665 mmHg 91%
19:00 +20°C° 0 mm 1 mps 665 mmHg 94%
20:00 +19°C° 0 mm 1 mps 666 mmHg 96%
21:00 +19°C° 0 mm 1 mps 666 mmHg 96%
22:00 +19°C° 0 mm 1 mps 666 mmHg 96%
23:00 +18°C° 0 mm 1 mps 666 mmHg 96%

24 April, Saturday

Time Temperature Precipitation Wind Pressure Humidity
00:00 +18°C° 0 mm 1 mps 665 mmHg 96%
01:00 +18°C° 0 mm 1 mps 665 mmHg 96%
02:00 +18°C° 0 mm 1 mps 664 mmHg 96%
03:00 +18°C° 0 mm 1 mps 665 mmHg 96%
04:00 +18°C° 0 mm 1 mps 665 mmHg 96%
05:00 +18°C° 0 mm 1 mps 665 mmHg 96%
06:00 +19°C° 0 mm 1 mps 666 mmHg 93%
07:00 +20°C° 0 mm 1 mps 666 mmHg 89%
08:00 +22°C° 0 mm 1 mps 667 mmHg 86%
09:00 +23°C° 0.1 mm 1 mps 667 mmHg 80%
10:00 +25°C° 0.1 mm 2 mps 667 mmHg 74%
11:00 +26°C° 0.1 mm 2 mps 667 mmHg 67%
12:00 +26°C° 0.5 mm 2 mps 667 mmHg 69%
13:00 +26°C° 0.5 mm 2 mps 666 mmHg 70%
14:00 +26°C° 0.5 mm 2 mps 665 mmHg 71%
15:00 +25°C° 0.4 mm 2 mps 665 mmHg 76%
16:00 +24°C° 0.4 mm 2 mps 665 mmHg 81%
17:00 +23°C° 0.4 mm 2 mps 665 mmHg 86%
18:00 +22°C° 0 mm 1 mps 665 mmHg 89%
19:00 +20°C° 0 mm 1 mps 665 mmHg 92%
20:00 +19°C° 0 mm 1 mps 666 mmHg 95%
21:00 +19°C° 0 mm 1 mps 666 mmHg 95%
22:00 +19°C° 0 mm 1 mps 666 mmHg 95%
23:00 +18°C° 0 mm 1 mps 666 mmHg 95%
Show more